Time,TemperatureF,DewpointF,PressureIn,WindDirection,WindDirectionDegrees,WindSpeedMPH,WindSpeedGustMPH,Humidity,HourlyPrecipIn,Conditions,Clouds,dailyrainin,SolarRadiationWatts/m^2,SoftwareType,DateUTC
2013-01-27 00:03:00,14.0,12.0,-100.00,North,0,4.0,11.0,91,0.00,,,0.00,0.000000,,2013-01-27 05:03:00,
2013-01-27 00:32:00,13.0,11.0,-100.00,North,0,5.0,9.0,91,0.00,,,0.00,0.000000,,2013-01-27 05:32:00,
2013-01-27 00:42:00,13.0,11.0,-100.00,North,0,5.0,9.0,91,0.00,,,0.00,0.000000,,2013-01-27 05:42:00,
2013-01-27 00:52:00,13.0,11.0,-100.00,North,0,5.0,9.0,91,0.00,,,0.00,0.000000,,2013-01-27 05:52:00,
2013-01-27 01:02:00,13.0,11.0,-100.00,North,0,5.0,9.0,91,0.00,,,0.00,0.000000,,2013-01-27 06:02:00,
2013-01-27 01:32:00,12.0,10.0,-100.00,North,0,1.0,7.0,90,0.00,,,0.00,0.000000,,2013-01-27 06:32:00,
2013-01-27 01:42:00,12.0,10.0,-100.00,North,0,1.0,7.0,90,0.00,,,0.00,0.000000,,2013-01-27 06:42:00,
2013-01-27 01:52:00,12.0,10.0,-100.00,North,0,1.0,7.0,90,0.00,,,0.00,0.000000,,2013-01-27 06:52:00,
2013-01-27 02:01:00,12.0,10.0,-100.00,North,0,1.0,7.0,90,0.00,,,0.00,0.000000,,2013-01-27 07:01:00,
2013-01-27 02:32:00,12.0,10.0,-100.00,North,0,2.0,5.0,90,0.00,,,0.00,0.000000,,2013-01-27 07:32:00,
2013-01-27 02:42:00,12.0,10.0,-100.00,North,0,2.0,5.0,90,0.00,,,0.00,0.000000,,2013-01-27 07:42:00,
2013-01-27 02:52:00,12.0,10.0,-100.00,North,0,2.0,5.0,90,0.00,,,0.00,0.000000,,2013-01-27 07:52:00,
2013-01-27 03:02:00,12.0,10.0,-100.00,North,0,2.0,5.0,90,0.00,,,0.00,0.000000,,2013-01-27 08:02:00,
2013-01-27 03:32:00,13.0,11.0,-100.00,North,0,2.0,5.0,90,0.00,,,0.00,0.000000,,2013-01-27 08:32:00,
2013-01-27 03:42:00,13.0,11.0,-100.00,North,0,2.0,5.0,90,0.00,,,0.00,0.000000,,2013-01-27 08:42:00,
2013-01-27 03:52:00,13.0,11.0,-100.00,North,0,2.0,5.0,90,0.00,,,0.00,0.000000,,2013-01-27 08:52:00,
2013-01-27 04:03:00,13.0,11.0,-100.00,North,0,2.0,5.0,90,0.00,,,0.00,0.000000,,2013-01-27 09:03:00,
2013-01-27 04:32:00,13.0,11.0,-100.00,North,0,2.0,5.0,91,0.00,,,0.00,0.000000,,2013-01-27 09:32:00,
2013-01-27 04:42:00,13.0,11.0,-100.00,North,0,2.0,5.0,91,0.00,,,0.00,0.000000,,2013-01-27 09:42:00,
2013-01-27 04:52:00,13.0,11.0,-100.00,North,0,2.0,5.0,91,0.00,,,0.00,0.000000,,2013-01-27 09:52:00,
2013-01-27 05:01:00,13.0,11.0,-100.00,North,0,2.0,5.0,91,0.00,,,0.00,0.000000,,2013-01-27 10:01:00,
2013-01-27 05:32:00,13.0,11.0,-100.00,North,0,2.0,4.0,91,0.00,,,0.00,0.000000,,2013-01-27 10:32:00,
2013-01-27 05:42:00,13.0,11.0,-100.00,North,0,2.0,4.0,91,0.00,,,0.00,0.000000,,2013-01-27 10:42:00,
2013-01-27 05:52:00,13.0,11.0,-100.00,North,0,2.0,4.0,91,0.00,,,0.00,0.000000,,2013-01-27 10:52:00,
2013-01-27 06:01:00,13.0,11.0,-100.00,North,0,2.0,4.0,91,0.00,,,0.00,0.000000,,2013-01-27 11:01:00,
2013-01-27 06:32:00,13.0,11.0,-100.00,North,0,1.0,4.0,91,0.00,,,0.00,0.000000,,2013-01-27 11:32:00,
2013-01-27 06:42:00,13.0,11.0,-100.00,North,0,1.0,4.0,91,0.00,,,0.00,0.000000,,2013-01-27 11:42:00,
2013-01-27 06:52:00,13.0,11.0,-100.00,North,0,1.0,4.0,91,0.00,,,0.00,0.000000,,2013-01-27 11:52:00,
2013-01-27 07:02:00,13.0,11.0,-100.00,North,0,1.0,4.0,91,0.00,,,0.00,0.000000,,2013-01-27 12:02:00,
2013-01-27 07:33:00,13.0,11.0,-100.00,North,0,0.0,2.0,91,0.00,,,0.00,0.000000,,2013-01-27 12:33:00,
2013-01-27 07:42:00,13.0,11.0,-100.00,North,0,0.0,2.0,91,0.00,,,0.00,0.000000,,2013-01-27 12:42:00,
2013-01-27 07:52:00,13.0,11.0,-100.00,North,0,0.0,2.0,91,0.00,,,0.00,0.000000,,2013-01-27 12:52:00,
2013-01-27 08:02:00,13.0,11.0,-100.00,North,0,0.0,2.0,91,0.00,,,0.00,0.000000,,2013-01-27 13:02:00,
2013-01-27 08:32:00,11.0,9.0,-100.00,North,0,0.0,0.0,90,0.00,,,0.00,12.000000,,2013-01-27 13:32:00,
2013-01-27 08:42:00,11.0,9.0,-100.00,North,0,0.0,0.0,90,0.00,,,0.00,12.000000,,2013-01-27 13:42:00,
2013-01-27 08:52:00,11.0,9.0,-100.00,North,0,0.0,0.0,90,0.00,,,0.00,12.000000,,2013-01-27 13:52:00,
2013-01-27 09:02:00,11.0,9.0,-100.00,North,0,0.0,0.0,90,0.00,,,0.00,12.000000,,2013-01-27 14:02:00,
2013-01-27 09:53:00,14.0,12.0,-100.00,North,0,0.0,0.0,90,0.00,,,0.00,40.000000,,2013-01-27 14:53:00,
2013-01-27 10:02:00,14.0,12.0,-100.00,North,0,0.0,0.0,90,0.00,,,0.00,40.000000,,2013-01-27 15:02:00,
2013-01-27 10:33:00,21.0,19.0,-100.00,North,0,2.0,5.0,90,0.00,,,0.00,170.000000,,2013-01-27 15:33:00,
2013-01-27 10:42:00,21.0,19.0,-100.00,North,0,2.0,5.0,90,0.00,,,0.00,170.000000,,2013-01-27 15:42:00,
2013-01-27 10:53:00,21.0,19.0,-100.00,North,0,2.0,5.0,90,0.00,,,0.00,170.000000,,2013-01-27 15:53:00,
2013-01-27 11:03:00,21.0,19.0,-100.00,North,0,2.0,5.0,90,0.00,,,0.00,170.000000,,2013-01-27 16:03:00,
2013-01-27 11:33:00,26.0,23.0,-100.00,North,0,3.0,7.0,89,0.00,,,0.00,383.000000,,2013-01-27 16:33:00,
2013-01-27 11:42:00,26.0,23.0,-100.00,North,0,3.0,7.0,89,0.00,,,0.00,383.000000,,2013-01-27 16:42:00,
2013-01-27 11:53:00,26.0,23.0,-100.00,North,0,3.0,7.0,89,0.00,,,0.00,383.000000,,2013-01-27 16:53:00,
2013-01-27 12:02:00,26.0,23.0,-100.00,North,0,3.0,7.0,89,0.00,,,0.00,383.000000,,2013-01-27 17:02:00,
2013-01-27 12:32:00,28.0,24.0,-100.00,North,0,5.0,9.0,86,0.12,,,0.12,505.000000,,2013-01-27 17:32:00,
2013-01-27 12:42:00,28.0,24.0,-100.00,North,0,5.0,9.0,86,0.12,,,0.12,505.000000,,2013-01-27 17:42:00,
2013-01-27 12:53:00,28.0,24.0,-100.00,North,0,5.0,9.0,86,0.12,,,0.12,505.000000,,2013-01-27 17:53:00,
2013-01-27 13:03:00,28.0,24.0,-100.00,North,0,5.0,9.0,86,0.12,,,0.12,505.000000,,2013-01-27 18:03:00,
2013-01-27 13:32:00,26.0,22.0,-100.00,North,0,4.0,10.0,83,0.02,,,0.14,472.000000,,2013-01-27 18:32:00,
2013-01-27 13:42:00,26.0,22.0,-100.00,North,0,4.0,10.0,83,0.02,,,0.14,472.000000,,2013-01-27 18:42:00,
2013-01-27 13:53:00,26.0,22.0,-100.00,North,0,4.0,10.0,83,0.02,,,0.14,472.000000,,2013-01-27 18:53:00,
2013-01-27 14:02:00,26.0,22.0,-100.00,North,0,4.0,10.0,83,0.02,,,0.14,472.000000,,2013-01-27 19:02:00,
2013-01-27 14:33:00,27.0,21.0,-100.00,North,0,5.0,12.0,78,0.01,,,0.15,455.000000,,2013-01-27 19:33:00,
2013-01-27 14:42:00,27.0,21.0,-100.00,North,0,5.0,12.0,78,0.01,,,0.15,455.000000,,2013-01-27 19:42:00,
2013-01-27 14:52:00,27.0,21.0,-100.00,North,0,5.0,12.0,78,0.01,,,0.15,455.000000,,2013-01-27 19:52:00,
2013-01-27 15:03:00,27.0,21.0,-100.00,North,0,5.0,12.0,78,0.01,,,0.15,455.000000,,2013-01-27 20:03:00,
2013-01-27 15:33:00,27.0,21.0,-100.00,North,0,5.0,10.0,79,0.00,,,0.15,310.000000,,2013-01-27 20:33:00,
2013-01-27 15:42:00,27.0,21.0,-100.00,North,0,5.0,10.0,79,0.00,,,0.15,310.000000,,2013-01-27 20:42:00,
2013-01-27 15:52:00,27.0,21.0,-100.00,North,0,5.0,10.0,79,0.00,,,0.15,310.000000,,2013-01-27 20:52:00,
2013-01-27 16:02:00,27.0,21.0,-100.00,North,0,5.0,10.0,79,0.00,,,0.15,310.000000,,2013-01-27 21:02:00,
2013-01-27 16:33:00,27.0,20.0,-100.00,North,0,4.0,11.0,75,0.00,,,0.15,248.000000,,2013-01-27 21:33:00,
2013-01-27 16:43:00,27.0,20.0,-100.00,North,0,4.0,11.0,75,0.00,,,0.15,248.000000,,2013-01-27 21:43:00,
2013-01-27 16:52:00,27.0,20.0,-100.00,North,0,4.0,11.0,75,0.00,,,0.15,248.000000,,2013-01-27 21:52:00,
2013-01-27 17:02:00,27.0,20.0,-100.00,North,0,4.0,11.0,75,0.00,,,0.15,248.000000,,2013-01-27 22:02:00,
2013-01-27 18:32:00,23.0,17.0,-100.00,North,0,6.0,11.0,78,-99.99,,,0.15,5.000000,,2013-01-27 23:32:00,
2013-01-27 18:42:00,23.0,17.0,-100.00,North,0,6.0,11.0,78,-99.99,,,0.15,5.000000,,2013-01-27 23:42:00,
2013-01-27 18:53:00,23.0,17.0,-100.00,North,0,6.0,11.0,78,-99.99,,,0.15,5.000000,,2013-01-27 23:53:00,
2013-01-27 19:02:00,23.0,17.0,-100.00,North,0,6.0,11.0,78,-99.99,,,0.15,5.000000,,2013-01-28 00:02:00,
2013-01-27 19:33:00,24.0,17.0,-100.00,North,0,6.0,12.0,74,0.00,,,0.15,0.000000,,2013-01-28 00:33:00,
2013-01-27 19:42:00,24.0,17.0,-100.00,North,0,6.0,12.0,74,0.00,,,0.15,0.000000,,2013-01-28 00:42:00,
2013-01-27 19:52:00,24.0,17.0,-100.00,North,0,6.0,12.0,74,0.00,,,0.15,0.000000,,2013-01-28 00:52:00,
2013-01-27 20:02:00,24.0,17.0,-100.00,North,0,6.0,12.0,74,0.00,,,0.15,0.000000,,2013-01-28 01:02:00,
2013-01-27 20:33:00,24.0,17.0,-100.00,North,0,9.0,15.0,75,0.00,,,0.15,0.000000,,2013-01-28 01:33:00,
2013-01-27 20:42:00,24.0,17.0,-100.00,North,0,9.0,15.0,75,0.00,,,0.15,0.000000,,2013-01-28 01:42:00,
2013-01-27 20:52:00,24.0,17.0,-100.00,North,0,9.0,15.0,75,0.00,,,0.15,0.000000,,2013-01-28 01:52:00,
2013-01-27 21:02:00,24.0,17.0,-100.00,North,0,9.0,15.0,75,0.00,,,0.15,0.000000,,2013-01-28 02:02:00,
2013-01-27 21:32:00,24.0,17.0,-100.00,North,0,9.0,17.0,74,0.00,,,0.15,0.000000,,2013-01-28 02:32:00,
2013-01-27 21:42:00,24.0,17.0,-100.00,North,0,9.0,17.0,74,0.00,,,0.15,0.000000,,2013-01-28 02:42:00,
2013-01-27 21:53:00,24.0,17.0,-100.00,North,0,9.0,17.0,74,0.00,,,0.15,0.000000,,2013-01-28 02:53:00,
2013-01-27 22:02:00,24.0,17.0,-100.00,North,0,9.0,17.0,74,0.00,,,0.15,0.000000,,2013-01-28 03:02:00,
2013-01-27 22:32:00,25.0,18.0,-100.00,North,0,6.0,16.0,74,0.00,,,0.15,0.000000,,2013-01-28 03:32:00,
2013-01-27 22:42:00,25.0,18.0,-100.00,North,0,6.0,16.0,74,0.00,,,0.15,0.000000,,2013-01-28 03:42:00,
2013-01-27 22:53:00,25.0,18.0,-100.00,North,0,6.0,16.0,74,0.00,,,0.15,0.000000,,2013-01-28 03:53:00,
2013-01-27 23:02:00,25.0,18.0,-100.00,North,0,6.0,16.0,74,0.00,,,0.15,0.000000,,2013-01-28 04:02:00,
2013-01-27 23:32:00,25.0,18.0,-100.00,North,0,5.0,12.0,74,0.00,,,0.15,0.000000,,2013-01-28 04:32:00,
2013-01-27 23:42:00,25.0,18.0,-100.00,North,0,5.0,12.0,74,0.00,,,0.15,0.000000,,2013-01-28 04:42:00,
2013-01-27 23:52:00,25.0,18.0,-100.00,North,0,5.0,12.0,74,0.00,,,0.15,0.000000,,2013-01-28 04:52:00,